Location: Newark
(33.2404°N, 35.6778°E)
Time: 18:26:31
(UTC+00:00)

Hubble Space Telescope - Pass Details

Date: 05 February 2020
Orbit: 536 x 540 km, 28.5° (Epoch: 16 February)

Event Time Altitude Azimuth Distance (km) Brightness Sun altitude
Exits shadow 02:59:32 35° 221° (SW) 876 1.5 -19.4°
Maximum altitude 03:00:35 42° 182° (S) 762 1.5 -19.2°
Drops below altitude 10° 03:04:29 10° 111° (ESE) 1,777 4.6 -18.4°
Sets 03:06:49 0° 104° (ESE) 2,667 6.0 -17.9°
